Regional Weather Roundup
Issued by NWS

Home | Current Version | Previous Version | Graphics & Text | Print | Product List | Glossary Off
Versions: 1 2 3 4 5 6 7 8 9 10 11 12 13 14 15 16 17 18 19 20 21 22 23 24 25 26 27 28 29 30 31 32 33 34 35 36 37 38 39 40 41 42 43 44 45 46 47 48 49 50

022
ASUS43 KTOP 272059
RWRKS

WEATHER ROUNDUP FOR KANSAS
NATIONAL WEATHER SERVICE GOODLAND KS
400 PM CDT SUN MAY 27 2018

NOTE:  "FAIR" INDICATES FEW OR NO CLOUDS BELOW 12,000 FEET WITH NO
SIGNIFICANT WEATHER AND/OR OBSTRUCTIONS TO VISIBILITY.

KSZ001>006-013>018-027>032-041>047-272200-
NORTHWEST KANSAS

CITY           SKY/WX    TMP DP  RH WIND       PRES   REMARKS
GOODLAND       PTSUNNY   86  61  42 SE18G30   29.82F
HAYS           SUNNY     94  57  28 SE20G26   29.83S
HILL CITY      MOSUNNY   92  57  30 SE18G29   29.83S
RUSSELL        SUNNY     95  55  26 SE21G29   29.83F
$$

KSZ061>065-074>080-084>089-272200-
SOUTHWEST KANSAS

CITY           SKY/WX    TMP DP  RH WIND       PRES   REMARKS
DODGE CITY     SUNNY     95  63  34 SE22G36   29.84F HX  96
GARDEN CITY    SUNNY     94  60  32 SE26G37   29.81F
GREAT BEND     SUNNY     93  58  30 SE24G31   29.84F
LIBERAL        SUNNY     96  61  31 SE24G32   29.81F HX  96
$$

KSZ066>073-081>083-090>101-272200-
SOUTHEAST KANSAS

CITY           SKY/WX    TMP DP  RH WIND       PRES   REMARKS
CHANUTE        MOSUNNY   89  71  55 CALM      29.90S HX  95
COFFEYVILLE    MOSUNNY   90  68  48 SE6       29.87F
HUTCHINSON     SUNNY     95  58  28 SE15      29.85F
MEDICINE LODGE   N/A     92  59  33 SE15G23   29.83S
NEWTON         MOSUNNY   92  62  36 SE13G21   29.89F
PARSONS        CLOUDY    88  71  57 VRB3      29.90F
WICHITA INTL   MOSUNNY   95  58  28 SE15      29.86F
WICHITA JABRA  MOSUNNY   91  62  37 SE13      29.88S
WICHITA MCCONL SUNNY     93  59  32 S13       29.88S
WINFIELD       MOSUNNY   90  66  45 SE10      29.89S
$$

KSZ007>012-019>026-033>040-048>060-102>105-272200-
NORTHEAST KANSAS

CITY           SKY/WX    TMP DP  RH WIND       PRES   REMARKS
CONCORDIA      MOSUNNY   97  55  24 SE16G26   29.85F HX  95
EMPORIA        MOSUNNY   88  67  49 SE8       29.89F
LAWRENCE       CLOUDY    93  71  48 S7        29.86F HX 100
MANHATTAN      PTSUNNY   96  62  32 S10       29.85F HX  97
OLATHE IND     MOSUNNY   91  70  49 S9        29.89F HX  96
OLATHE EXE     CLOUDY    89  68  49 S8        29.89F
SALINA         MOSUNNY   98  57  25 S18G25    29.84F HX  97
TOPEKA BILLARD CLOUDY    95  66  38 S12       29.86F HX  98
TOPEKA FORBES  MOSUNNY   93  66  40 S9        29.88F HX  96
$$




USA.gov is the U.S. government's official web portal to all federal, state and local government web resources and services.